Location: Township of Marena
(38.1747°N, 99.6798°W)
Time: 05:29:49
(UTC+00:00)

CSL-04 Debris - Pass Details

Date: 26 October 2020
Orbit: 827 x 848 km, 98.9° (Epoch: 25 November)

Event Time Altitude Azimuth Distance (km) Brightness Sun altitude
Rises 01:23:37 0° 157° (SSE) 3,363 7.1 -19.6°
Reaches altitude 10° 01:25:58 10° 154° (SSE) 2,436 6.3 -20.1°
Maximum altitude 01:31:19 66° 73° (ENE) 912 4.1 -21.1°
Drops below altitude 10° 01:36:44 10° 352° (N) 2,466 6.7 -22.2°
Sets 01:39:07 0° 350° (N) 3,407 7.5 -22.7°
